period_start,C,m1,H,J0,J1,J2,J3,J4,J5,JA,JB,JC,JD,JJ,JK,JN,#
2018-06-20 00:02:37,-0.02,0.28,0.00,30.58,33.61,35.95,13.48,47.73,1013.22,2001.40,3236.09,2968.94,3408.23,599.93,579.19,4.20,0000 0000 0000 0000 000000
2018-06-20 00:07:39,0.03,0.28,0.00,30.62,33.64,35.97,13.50,47.78,1013.22,2001.06,3235.33,2968.17,3407.56,600.17,579.30,4.25,0000 0000 0000 0000 000000
2018-06-20 00:12:40,0.02,0.28,0.00,30.66,33.68,36.02,13.45,47.88,1013.21,2001.00,3234.51,2967.77,3406.78,600.02,579.07,4.30,0000 0000 0000 0000 000000
2018-06-20 00:17:41,0.16,0.29,0.00,30.71,33.72,36.06,13.54,47.77,1013.22,2001.00,3232.53,2965.73,3404.21,600.05,579.06,4.35,0000 0000 0000 0000 000000
2018-06-20 00:22:43,0.05,0.29,0.00,30.76,33.76,36.09,13.46,47.72,1013.23,2000.96,3230.97,2964.31,3402.82,600.11,579.07,4.40,0000 0000 0000 0000 000000
2018-06-20 00:27:44,0.03,0.29,0.00,30.80,33.80,36.13,13.53,47.70,1013.22,2000.79,3229.93,2963.72,3402.00,600.09,578.85,4.45,0000 0000 0000 0000 000000
2018-06-20 00:32:45,0.04,0.30,0.00,30.84,33.84,36.17,13.48,47.60,1013.22,2000.31,3228.61,2962.57,3400.58,600.09,578.82,4.50,0000 0000 0000 0000 000000
2018-06-20 00:37:47,0.10,0.30,0.00,30.88,33.87,36.21,13.47,47.73,1013.21,2000.05,3226.36,2960.50,3398.13,599.92,578.56,4.55,0000 0000 0000 0000 000000
2018-06-20 00:42:48,0.03,0.30,0.00,30.92,33.91,36.24,13.52,47.70,1013.21,2000.00,3225.26,2959.85,3397.20,600.13,578.70,4.60,0000 0000 0000 0000 000000
2018-06-20 00:47:49,0.05,0.31,0.00,30.97,33.95,36.28,13.51,47.73,1013.21,2000.00,3224.20,2959.05,3396.36,600.24,578.71,4.65,0000 0000 0000 0000 000000
2018-06-20 00:52:50,0.04,0.31,0.00,31.02,33.99,36.32,13.40,47.51,1013.21,1999.99,3223.28,2958.44,3395.66,599.71,578.10,4.70,0000 0000 0000 0000 000000
2018-06-20 00:57:51,0.02,0.31,0.00,31.06,34.03,36.35,13.46,47.67,1013.21,1999.97,3222.35,2957.92,3394.94,600.08,578.42,4.75,0000 0000 0000 0000 000000
2018-06-20 01:02:52,0.03,0.31,0.00,31.11,34.07,36.39,13.52,47.67,1013.20,1999.80,3221.24,2957.10,3394.09,600.31,578.41,4.80,0000 0000 0000 0000 000000
2018-06-20 01:07:54,0.00,0.31,0.00,31.15,34.11,36.44,13.52,47.60,1013.20,1999.29,3220.34,2956.58,3393.28,600.27,578.32,4.85,0000 0000 0000 0000 000000
2018-06-20 01:12:55,0.03,0.31,0.00,31.19,34.15,36.48,13.51,47.50,1013.20,1999.02,3219.39,2955.93,3392.56,600.29,578.32,4.90,0000 0000 0000 0000 000000
2018-06-20 01:17:56,0.04,0.32,0.00,31.24,34.19,36.51,13.45,47.60,1013.20,1999.00,3218.38,2955.14,3391.78,600.19,578.10,4.95,0000 0000 0000 0000 000000
2018-06-20 01:22:58,0.04,0.32,0.00,31.29,34.23,36.55,13.51,47.58,1013.20,1998.99,3217.42,2954.57,3391.03,600.16,578.02,5.00,0000 0000 0000 0000 000000
2018-06-20 01:27:59,0.03,0.32,0.00,31.33,34.27,36.59,13.45,47.48,1013.20,1998.94,3216.61,2954.00,3390.40,600.36,578.16,5.05,0000 0000 0000 0000 000000
2018-06-20 01:33:00,-0.01,0.32,0.00,31.38,34.31,36.63,13.47,47.48,1013.21,1998.50,3215.76,2953.32,3389.64,600.10,577.80,5.10,0000 0000 0000 0000 000000
2018-06-20 01:38:01,0.01,0.32,0.00,31.43,34.35,36.68,13.43,47.32,1013.22,1998.08,3214.86,2952.85,3388.88,599.68,577.48,5.15,0000 0000 0000 0000 000000
2018-06-20 01:43:02,0.05,0.32,0.00,31.47,34.39,36.72,13.50,47.82,1013.30,1998.00,3213.83,2952.08,3388.05,600.22,577.75,5.20,0000 0000 0000 0000 000000
2018-06-20 01:48:04,0.05,0.32,0.00,31.52,34.43,36.76,13.41,47.58,1013.45,1998.00,3212.90,2951.43,3387.18,599.39,576.98,5.25,0000 0000 0000 0000 000000
2018-06-20 01:53:05,0.03,0.33,0.00,31.58,34.47,36.79,13.43,47.62,1013.60,1997.95,3212.00,2950.90,3386.34,599.74,577.35,5.30,0000 0000 0000 0000 000000
2018-06-20 01:58:07,0.01,0.33,0.00,31.62,34.51,36.84,13.44,47.63,1013.66,1997.68,3211.11,2950.13,3385.75,599.97,577.48,5.35,0000 0000 0000 0000 000000
2018-06-20 02:03:08,0.00,0.33,0.00,31.66,34.55,36.88,13.48,47.39,1013.66,1997.10,3210.11,2949.51,3384.96,600.23,577.60,5.40,0000 0000 0000 0000 000000
2018-06-20 02:08:09,0.03,0.33,0.00,31.71,34.59,36.92,13.43,47.53,1013.67,1997.02,3209.25,2948.99,3384.17,600.45,577.67,5.45,0000 0000 0000 0000 000000
2018-06-20 02:13:11,0.05,0.33,0.00,31.76,34.63,36.96,13.42,47.52,1013.68,1997.00,3208.33,2948.29,3383.36,599.95,577.18,5.50,0000 0000 0000 0000 000000
2018-06-20 02:18:12,0.02,0.33,0.00,31.80,34.67,37.00,13.38,47.49,1013.67,1996.99,3207.55,2947.91,3382.75,599.95,577.03,5.55,0000 0000 0000 0000 000000
2018-06-20 02:23:13,0.04,0.33,0.00,31.85,34.71,37.04,13.39,47.56,1013.67,1996.97,3206.61,2947.16,3382.04,599.47,576.62,5.60,0000 0000 0000 0000 000000
2018-06-20 02:28:15,0.00,0.34,0.00,31.90,34.75,37.09,13.37,47.54,1013.67,1996.65,3205.73,2946.62,3381.22,599.87,576.88,5.65,0000 0000 0000 0000 000000
2018-06-20 02:33:16,-0.01,0.34,0.00,31.94,34.79,37.14,13.45,47.57,1013.69,1996.15,3204.90,2946.00,3380.49,600.23,577.23,5.70,0000 0000 0000 0000 000000
2018-06-20 02:38:17,0.04,0.34,0.00,31.99,34.83,37.18,13.41,47.75,1013.69,1996.00,3203.98,2945.30,3379.83,599.83,576.63,5.75,0000 0000 0000 0000 000000
2018-06-20 02:43:18,0.04,0.34,0.00,32.04,34.87,37.22,13.38,47.57,1013.69,1996.00,3203.07,2944.78,3378.97,599.83,576.56,5.80,0000 0000 0000 0000 000000
2018-06-20 02:48:20,0.04,0.34,0.00,32.09,34.91,37.25,13.44,47.61,1013.69,1995.97,3202.15,2944.04,3378.12,599.99,576.61,5.85,0000 0000 0000 0000 000000
2018-06-20 02:53:21,-0.00,0.34,0.00,32.13,34.96,37.29,13.43,47.42,1013.69,1995.72,3201.46,2943.72,3377.55,600.37,576.92,5.90,0000 0000 0000 0000 000000
2018-06-20 02:58:22,-0.01,0.34,0.00,32.17,35.00,37.35,13.44,47.49,1013.69,1995.16,3200.61,2943.03,3376.87,600.04,576.45,5.95,0000 0000 0000 0000 000000
2018-06-20 03:03:24,0.03,0.34,0.00,32.21,35.04,37.38,13.41,47.38,1013.69,1995.01,3199.77,2942.52,3376.06,599.66,576.02,6.00,0000 0000 0000 0000 000000
2018-06-20 03:08:25,0.02,0.34,0.00,32.26,35.08,37.43,13.48,47.43,1013.69,1995.00,3199.03,2942.01,3375.43,600.19,576.49,6.06,0000 0000 0000 0000 000000
2018-06-20 03:13:26,0.04,0.35,0.00,32.30,35.12,37.46,13.34,47.42,1013.69,1994.98,3198.21,2941.34,3374.71,599.66,575.91,6.11,0000 0000 0000 0000 000000
2018-06-20 03:18:28,-0.01,0.35,0.00,32.34,35.17,37.51,13.41,47.31,1013.69,1994.63,3197.42,2940.89,3374.01,600.26,576.38,6.16,0000 0000 0000 0000 000000
2018-06-20 03:23:29,0.01,0.35,0.00,32.39,35.21,37.55,13.50,47.50,1013.69,1994.19,3196.58,2940.12,3373.22,600.44,576.48,6.21,0000 0000 0000 0000 000000
2018-06-20 03:28:30,0.02,0.35,0.00,32.43,35.25,37.59,13.43,47.44,1013.69,1994.01,3195.95,2939.81,3372.65,600.18,576.15,6.26,0000 0000 0000 0000 000000
2018-06-20 03:33:32,0.03,0.35,0.00,32.47,35.29,37.63,13.41,47.43,1013.69,1994.00,3195.14,2939.08,3372.02,599.80,575.85,6.31,0000 0000 0000 0000 000000
2018-06-20 03:38:33,0.03,0.35,0.00,32.51,35.34,37.68,13.49,47.57,1013.70,1993.98,3194.55,2938.82,3371.31,600.25,576.16,6.36,0000 0000 0000 0000 000000
2018-06-20 03:43:34,-0.01,0.35,0.00,32.55,35.38,37.73,13.41,47.26,1013.69,1993.67,3193.82,2938.07,3370.75,599.84,575.54,6.41,0000 0000 0000 0000 000000
2018-06-20 03:48:35,0.00,0.35,0.00,32.59,35.42,37.76,13.38,47.32,1013.69,1993.22,3193.01,2937.64,3370.01,600.03,575.72,6.46,0000 0000 0000 0000 000000
2018-06-20 03:53:37,0.02,0.35,0.00,32.63,35.46,37.81,13.38,47.36,1013.69,1993.01,3192.26,2937.03,3369.41,599.87,575.56,6.51,0000 0000 0000 0000 000000
2018-06-20 03:58:38,0.04,0.35,0.00,32.66,35.50,37.85,13.38,47.34,1013.69,1993.00,3191.54,2936.54,3368.71,599.84,575.38,6.56,0000 0000 0000 0000 000000
2018-06-20 04:03:39,0.01,0.36,0.00,32.70,35.54,37.89,13.40,47.38,1013.69,1992.94,3190.85,2936.01,3368.02,599.41,574.94,6.61,0000 0000 0000 0000 000000
2018-06-20 04:08:41,0.01,0.36,0.00,32.73,35.58,37.93,13.39,47.49,1013.69,1992.63,3190.03,2935.53,3367.37,600.21,575.62,6.66,0000 0000 0000 0000 000000
2018-06-20 04:13:42,-0.01,0.36,0.00,32.77,35.62,37.96,13.46,47.52,1013.67,1992.06,3189.17,2934.96,3366.71,600.31,575.75,6.71,0000 0000 0000 0000 000000
2018-06-20 04:18:43,0.04,0.36,0.00,32.81,35.66,38.01,13.42,47.57,1013.65,1992.00,3188.40,2934.16,3365.99,600.10,575.33,6.76,0000 0000 0000 0000 000000
2018-06-20 04:23:44,0.03,0.36,0.00,32.83,35.70,38.05,13.41,47.48,1013.54,1991.99,3187.73,2933.86,3365.23,600.30,575.50,6.81,0000 0000 0000 0000 000000
2018-06-20 04:28:46,0.03,0.36,0.00,32.86,35.74,38.08,13.49,47.73,1013.55,1991.95,3187.01,2933.13,3364.77,600.00,575.11,6.86,0000 0000 0000 0000 000000
2018-06-20 04:33:47,-0.02,0.36,0.00,32.89,35.78,38.12,13.38,47.39,1013.57,1991.61,3186.21,2932.93,3364.06,600.15,575.22,6.91,0000 0000 0000 0000 000000
2018-06-20 04:38:48,0.02,0.36,0.00,32.91,35.81,38.15,13.35,47.23,1013.51,1991.20,3185.68,2932.25,3363.56,599.99,574.90,6.96,0000 0000 0000 0000 000000
2018-06-20 04:43:50,0.00,0.36,0.00,32.94,35.85,38.19,13.41,47.30,1013.52,1991.03,3184.99,2931.95,3362.96,600.48,575.31,7.01,0000 0000 0000 0000 000000
2018-06-20 04:48:51,0.05,0.36,0.00,32.98,35.89,38.23,13.39,47.43,1013.54,1991.00,3184.29,2931.29,3362.19,600.15,575.01,7.06,0000 0000 0000 0000 000000
2018-06-20 04:53:52,0.01,0.36,0.00,33.01,35.93,38.27,13.34,47.46,1013.36,1990.98,3183.84,2930.99,3361.87,600.30,575.03,7.11,0000 0000 0000 0000 000000
2018-06-20 04:58:53,0.00,0.36,0.00,33.04,35.96,38.30,13.39,47.20,1013.25,1990.66,3183.06,2930.39,3361.09,599.93,574.57,7.16,0000 0000 0000 0000 000000
2018-06-20 05:03:55,-0.01,0.36,0.00,33.06,36.00,38.34,13.44,47.45,1013.24,1990.22,3182.40,2930.00,3360.66,599.97,574.55,7.21,0000 0000 0000 0000 000000
2018-06-20 05:08:56,0.03,0.36,0.00,33.09,36.03,38.37,13.31,47.20,1013.23,1990.01,3181.82,2929.43,3360.00,599.97,574.45,7.26,0000 0000 0000 0000 000000
2018-06-20 05:13:57,0.02,0.37,0.00,33.12,36.07,38.41,13.39,47.30,1013.22,1990.00,3181.06,2929.01,3359.33,600.07,574.50,7.31,0000 0000 0000 0000 000000
2018-06-20 05:18:58,0.02,0.37,0.00,33.15,36.10,38.43,13.41,47.50,1013.26,1990.00,3180.63,2928.82,3358.98,600.04,574.38,7.36,0000 0000 0000 0000 000000
2018-06-20 05:23:59,0.03,0.37,0.00,33.17,36.14,38.47,13.40,47.48,1013.43,1989.96,3180.01,2928.06,3358.26,599.65,574.30,7.41,0000 0000 0000 0000 000000
2018-06-20 05:29:01,-0.03,0.37,0.00,33.20,36.17,38.50,13.37,47.25,1013.58,1989.65,3179.45,2927.99,3357.97,600.12,574.55,7.46,0000 0000 0000 0000 000000
2018-06-20 05:34:02,0.00,0.37,0.00,33.22,36.19,38.53,13.35,47.44,1013.55,1989.11,3178.98,2927.54,3357.36,599.57,574.26,7.51,0000 0000 0000 0000 000000
2018-06-20 05:39:04,0.01,0.37,0.00,33.25,36.23,38.56,13.39,47.38,1013.55,1989.00,3178.20,2927.01,3356.97,600.32,574.82,7.56,0000 0000 0000 0000 000000
2018-06-20 05:44:05,0.02,0.37,0.00,33.27,36.25,38.59,13.33,47.22,1013.46,1989.00,3177.91,2926.79,3356.28,599.96,574.23,7.61,0000 0000 0000 0000 000000
2018-06-20 05:49:07,0.03,0.37,0.00,33.30,36.29,38.62,13.36,47.18,1013.44,1988.95,3177.10,2926.07,3355.92,599.76,574.05,7.66,0000 0000 0000 0000 000000
2018-06-20 05:54:08,-0.01,0.37,0.00,33.31,36.31,38.65,13.35,47.24,1013.48,1988.63,3176.58,2925.95,3355.14,600.24,574.47,7.71,0000 0000 0000 0000 000000
2018-06-20 05:59:10,-0.00,0.37,0.00,33.33,36.34,38.68,13.38,47.25,1013.63,1988.21,3176.01,2925.26,3354.93,599.53,573.91,7.76,0000 0000 0000 0000 000000
2018-06-20 06:04:11,0.02,0.37,0.00,33.35,36.37,38.70,13.36,47.42,1013.63,1988.03,3175.63,2925.00,3354.22,600.06,574.29,7.81,0000 0000 0000 0000 000000
2018-06-20 06:09:12,0.01,0.37,0.00,33.37,36.40,38.73,13.37,47.35,1013.69,1988.01,3175.04,2924.93,3354.00,599.84,574.23,7.86,0000 0000 0000 0000 000000
2018-06-20 06:14:13,0.04,0.37,0.00,33.40,36.43,38.76,13.35,47.28,1013.69,1988.00,3174.67,2924.21,3353.57,600.10,574.33,7.91,0000 0000 0000 0000 000000
2018-06-20 06:19:14,0.01,0.38,0.00,33.41,36.45,38.79,13.35,47.30,1013.67,1988.00,3174.06,2924.00,3353.05,599.96,574.08,7.96,0000 0000 0000 0000 000000
2018-06-20 06:24:16,0.00,0.38,0.00,33.44,36.48,38.82,13.30,47.23,1013.66,1987.96,3173.83,2923.92,3352.91,599.70,573.79,8.01,0000 0000 0000 0000 000000
2018-06-20 06:29:17,0.02,0.38,0.00,33.45,36.51,38.84,13.39,47.42,1013.63,1987.74,3173.10,2923.25,3352.13,599.60,573.67,8.06,0000 0000 0000 0000 000000
2018-06-20 06:34:18,-0.05,0.38,0.00,33.47,36.54,38.87,13.34,47.35,1013.60,1987.25,3172.93,2923.00,3351.96,599.62,573.60,8.11,0000 0000 0000 0000 000000
2018-06-20 06:39:19,0.01,0.38,0.00,33.49,36.56,38.89,13.36,47.39,1013.59,1987.03,3172.22,2922.90,3351.34,599.75,573.83,8.16,0000 0000 0000 0000 000000
2018-06-20 06:44:20,0.02,0.38,0.00,33.52,36.59,38.92,13.38,47.40,1013.51,1987.00,3171.99,2922.30,3351.01,600.37,574.19,8.21,0000 0000 0000 0000 000000
2018-06-20 06:49:22,0.01,0.38,0.00,33.54,36.61,38.94,13.34,47.34,1013.45,1987.00,3171.55,2922.03,3350.87,600.03,573.78,8.26,0000 0000 0000 0000 000000
2018-06-20 06:54:23,0.01,0.38,0.00,33.56,36.64,38.97,13.31,47.33,1013.58,1987.00,3171.01,2921.98,3350.23,599.77,573.53,8.31,0000 0000 0000 0000 000000
2018-06-20 06:59:25,0.01,0.38,0.00,33.59,36.66,38.99,13.40,47.46,1013.52,1986.99,3170.87,2921.68,3350.00,600.03,573.83,8.36,0000 0000 0000 0000 000000
2018-06-20 07:04:26,0.02,0.38,0.00,33.61,36.68,39.00,13.34,47.32,1013.65,1986.96,3170.13,2921.08,3349.79,599.92,573.57,8.42,0000 0000 0000 0000 000000
2018-06-20 07:09:27,-0.04,0.38,0.00,33.63,36.70,39.03,13.22,46.94,1013.68,1986.61,3169.96,2921.00,3349.10,599.87,573.71,8.47,0000 0000 0000 0000 000000
2018-06-20 07:14:29,0.00,0.38,0.00,33.66,36.73,39.05,13.36,47.31,1013.67,1986.21,3169.32,2920.78,3348.95,600.05,573.72,8.52,0000 0000 0000 0000 000000
2018-06-20 07:19:30,0.02,0.38,0.00,33.67,36.75,39.08,13.38,47.55,1013.65,1986.05,3169.00,2920.24,3348.46,599.89,573.48,8.57,0000 0000 0000 0000 000000
2018-06-20 07:24:31,0.01,0.38,0.00,33.70,36.77,39.10,13.31,47.41,1013.62,1986.00,3168.62,2920.00,3348.01,599.97,573.56,8.62,0000 0000 0000 0000 000000
2018-06-20 07:29:33,0.01,0.38,0.00,33.72,36.79,39.11,13.30,47.43,1013.60,1986.00,3168.04,2919.91,3347.78,599.59,573.17,8.67,0000 0000 0000 0000 000000
2018-06-20 07:34:34,0.03,0.38,0.00,33.76,36.81,39.14,13.31,47.77,1013.59,1985.99,3167.75,2919.29,3347.08,599.89,573.30,8.72,0000 0000 0000 0000 000000
2018-06-20 07:39:35,0.01,0.38,0.00,33.78,36.84,39.16,13.37,47.51,1013.58,1985.95,3167.06,2919.01,3346.95,600.24,573.60,8.77,0000 0000 0000 0000 000000
2018-06-20 07:44:37,-0.00,0.38,0.00,33.80,36.85,39.18,13.35,47.72,1013.46,1985.69,3166.55,2918.70,3346.29,600.36,573.60,8.82,0000 0000 0000 0000 000000
2018-06-20 07:49:38,0.01,0.38,0.00,33.83,36.88,39.20,13.29,47.73,1013.59,1985.25,3165.38,2918.03,3345.57,599.95,573.19,8.87,0000 0000 0000 0000 000000
2018-06-20 07:54:39,0.03,0.38,0.00,33.85,36.90,39.21,13.27,47.57,1013.69,1985.10,3164.43,2917.56,3345.00,599.48,572.80,8.92,0000 0000 0000 0000 000000
2018-06-20 07:59:41,0.01,0.39,0.00,33.87,36.92,39.24,13.34,47.57,1013.69,1985.02,3164.00,2917.03,3344.75,599.82,573.08,8.97,0000 0000 0000 0000 000000
2018-06-20 08:04:42,0.02,0.39,0.00,33.90,36.94,39.27,13.34,47.77,1013.69,1985.00,3163.49,2916.81,3343.92,600.03,573.40,9.02,0000 0000 0000 0000 000000
2018-06-20 08:09:43,0.10,0.39,0.00,33.92,36.95,39.28,13.39,47.71,1013.69,1985.00,3161.96,2915.14,3342.14,600.22,573.41,9.07,0000 0000 0000 0000 000000
2018-06-20 08:14:44,0.01,0.39,0.00,33.95,36.98,39.30,13.36,47.68,1013.69,1985.00,3161.34,2914.95,3341.80,600.24,573.36,9.12,0000 0000 0000 0000 000000
2018-06-20 08:19:46,0.03,0.39,0.00,33.97,37.00,39.33,13.41,47.59,1013.69,1984.99,3161.00,2914.51,3341.14,600.11,573.19,9.17,0000 0000 0000 0000 000000
2018-06-20 08:24:47,0.13,0.40,0.00,33.99,37.02,39.35,13.28,47.53,1013.69,1984.95,3159.70,2913.06,3339.54,600.06,573.11,9.22,0000 0000 0000 0000 000000
2018-06-20 08:29:48,0.38,0.41,0.00,34.00,37.04,39.36,13.42,47.60,1013.69,1984.74,3155.07,2907.80,3333.54,600.30,573.24,9.27,0000 0000 0000 0000 000000
2018-06-20 08:34:49,0.01,0.42,0.00,34.02,37.06,39.39,13.32,47.29,1013.69,1984.37,3152.47,2905.02,3330.09,599.92,572.84,9.32,0000 0000 0000 0000 000000
2018-06-20 08:39:51,0.20,0.42,0.00,34.04,37.08,39.40,13.39,47.49,1013.69,1984.15,3150.61,2903.19,3327.93,600.21,573.24,9.37,0000 0000 0000 0000 000000
2018-06-20 08:44:52,0.06,0.43,0.00,34.05,37.10,39.42,13.37,47.49,1013.70,1984.03,3148.15,2900.24,3325.03,600.26,573.23,9.42,0000 0000 0000 0000 000000
2018-06-20 08:49:53,0.01,0.43,0.00,34.06,37.12,39.45,13.29,47.17,1013.70,1984.01,3147.94,2900.00,3324.48,599.95,573.02,9.47,0000 0000 0000 0000 000000
2018-06-20 08:54:54,0.02,0.44,0.00,34.08,37.14,39.47,13.36,47.59,1013.71,1984.00,3147.23,2899.94,3324.03,600.24,573.18,9.52,0000 0000 0000 0000 000000
2018-06-20 08:59:56,0.02,0.44,0.00,34.09,37.15,39.48,13.36,47.26,1013.70,1984.00,3147.00,2899.37,3323.98,600.13,572.84,9.57,0000 0000 0000 0000 000000
2018-06-20 09:04:57,0.02,0.44,0.00,34.10,37.18,39.51,13.32,47.33,1013.71,1984.00,3146.66,2899.05,3323.61,599.72,572.55,9.62,0000 0000 0000 0000 000000
2018-06-20 09:09:58,0.01,0.44,0.00,34.12,37.19,39.52,13.39,47.33,1013.73,1984.00,3146.09,2899.00,3323.05,600.19,572.98,9.67,0000 0000 0000 0000 000000
2018-06-20 09:14:59,0.00,0.44,0.00,34.12,37.20,39.54,13.33,47.08,1013.80,1983.97,3145.94,2898.84,3322.92,599.68,572.54,9.72,0000 0000 0000 0000 000000
2018-06-20 09:20:01,0.04,0.44,0.00,34.13,37.23,39.56,13.30,47.18,1013.90,1983.88,3145.24,2898.18,3322.26,599.55,572.43,9.77,0000 0000 0000 0000 000000
2018-06-20 09:25:02,-0.03,0.44,0.00,34.15,37.24,39.57,13.35,47.44,1014.15,1983.57,3145.00,2898.00,3322.00,600.00,573.08,9.82,0000 0000 0000 0000 000000
2018-06-20 09:30:03,-0.00,0.44,0.00,34.15,37.25,39.59,13.36,47.30,1014.17,1983.28,3144.64,2897.97,3321.82,600.14,573.00,9.87,0000 0000 0000 0000 000000
2018-06-20 09:35:05,0.02,0.44,0.00,34.17,37.28,39.60,13.39,47.24,1014.17,1983.07,3144.03,2897.49,3321.18,600.25,573.23,9.92,0000 0000 0000 0000 000000
2018-06-20 09:40:06,0.01,0.44,0.00,34.18,37.29,39.62,13.34,47.18,1014.24,1983.03,3143.90,2897.06,3321.00,600.37,573.41,9.97,0000 0000 0000 0000 000000
2018-06-20 09:45:07,0.01,0.44,0.00,34.20,37.30,39.63,13.27,47.08,1014.22,1983.00,3143.16,2897.00,3320.85,599.76,572.84,10.02,0000 0000 0000 0000 000000
2018-06-20 09:50:08,0.01,0.44,0.00,34.21,37.32,39.65,13.24,47.38,1014.18,1983.00,3142.99,2896.91,3320.16,599.71,572.61,10.07,0000 0000 0000 0000 000000
2018-06-20 09:55:10,0.03,0.44,0.00,34.22,37.34,39.67,13.34,47.21,1014.18,1983.00,3142.48,2896.27,3320.00,599.82,572.72,10.12,0000 0000 0000 0000 000000
2018-06-20 10:00:11,0.01,0.44,0.00,34.24,37.35,39.67,13.32,46.95,1014.18,1983.00,3142.02,2896.02,3319.79,599.92,572.77,10.17,0000 0000 0000 0000 000000
2018-06-20 10:05:12,0.01,0.45,0.00,34.25,37.37,39.68,13.45,47.42,1014.18,1983.00,3141.86,2895.99,3319.12,600.50,573.29,10.22,0000 0000 0000 0000 000000
2018-06-20 10:10:13,0.02,0.45,0.00,34.26,37.39,39.71,13.31,47.06,1014.20,1982.98,3141.16,2895.79,3318.99,599.88,572.63,10.27,0000 0000 0000 0000 000000
2018-06-20 10:15:14,0.02,0.45,0.00,34.28,37.40,39.73,13.33,47.22,1014.21,1982.92,3140.99,2895.12,3318.58,599.97,572.70,10.32,0000 0000 0000 0000 000000
2018-06-20 10:20:15,-0.00,0.45,0.00,34.30,37.43,39.75,13.36,47.23,1014.19,1982.75,3140.54,2895.00,3318.05,600.23,573.02,10.37,0000 0000 0000 0000 000000
2018-06-20 10:25:16,-0.01,0.45,0.00,34.32,37.44,39.78,13.40,47.46,1014.18,1982.52,3140.02,2894.92,3317.97,600.13,573.01,10.42,0000 0000 0000 0000 000000
2018-06-20 10:30:18,-0.01,0.45,0.00,34.35,37.46,39.79,13.40,47.11,1014.18,1982.14,3139.94,2894.41,3317.54,600.20,572.85,10.47,0000 0000 0000 0000 000000
2018-06-20 10:35:19,0.01,0.45,0.00,34.38,37.49,39.83,13.32,47.48,1014.18,1982.06,3139.28,2894.06,3317.08,599.92,572.51,10.52,0000 0000 0000 0000 000000
2018-06-20 10:40:20,0.00,0.45,0.00,34.41,37.51,39.88,13.36,47.32,1014.18,1982.03,3139.00,2894.00,3316.99,600.02,572.57,10.57,0000 0000 0000 0000 000000
2018-06-20 10:45:22,0.01,0.45,0.00,34.44,37.53,39.93,13.37,47.26,1014.27,1982.00,3138.83,2893.87,3316.60,600.10,572.67,10.62,0000 0000 0000 0000 000000
2018-06-20 10:50:23,0.03,0.45,0.00,34.47,37.55,39.97,13.30,47.06,1014.58,1982.00,3138.13,2893.24,3316.03,599.90,572.50,10.67,0000 0000 0000 0000 000000
2018-06-20 10:55:25,0.00,0.45,0.00,34.50,37.58,40.00,13.34,47.32,1014.58,1981.99,3137.99,2893.00,3315.95,600.29,572.83,10.72,0000 0000 0000 0000 000000
2018-06-20 11:00:26,0.01,0.45,0.00,34.53,37.60,40.04,13.34,47.17,1014.65,1981.91,3137.60,2892.97,3315.32,600.31,572.78,10.78,0000 0000 0000 0000 000000
2018-06-20 11:05:27,0.00,0.45,0.00,34.56,37.63,40.07,13.43,47.17,1014.66,1981.79,3137.06,2892.65,3315.02,600.18,572.79,10.83,0000 0000 0000 0000 000000
2018-06-20 11:10:28,0.05,0.45,0.00,34.58,37.65,40.10,13.33,47.19,1014.66,1981.53,3136.18,2891.65,3314.09,600.00,572.49,10.88,0000 0000 0000 0000 000000
2018-06-20 11:15:30,0.01,0.46,0.00,34.60,37.68,40.13,13.26,47.17,1014.66,1981.18,3135.01,2890.58,3312.94,599.82,572.29,10.93,0000 0000 0000 0000 000000
2018-06-20 11:20:31,0.02,0.46,0.00,34.60,37.70,40.15,13.30,47.13,1014.66,1981.04,3134.59,2890.06,3312.28,599.71,572.18,10.98,0000 0000 0000 0000 000000
2018-06-20 11:25:32,0.00,0.46,0.00,34.60,37.72,40.18,13.31,47.14,1014.66,1981.00,3134.02,2890.00,3312.00,599.99,572.52,11.03,0000 0000 0000 0000 000000
2018-06-20 11:30:33,0.01,0.46,0.00,34.61,37.74,40.20,13.36,47.23,1014.64,1981.00,3133.81,2889.77,3311.85,600.06,572.51,11.08,0000 0000 0000 0000 000000
2018-06-20 11:35:35,0.04,0.46,0.00,34.60,37.75,40.20,13.44,47.29,1014.66,1981.00,3133.05,2889.08,3311.11,600.51,572.93,11.13,0000 0000 0000 0000 000000
2018-06-20 11:40:36,0.01,0.46,0.00,34.59,37.78,40.19,13.35,47.27,1014.66,1980.99,3132.47,2888.98,3310.90,600.09,572.52,11.18,0000 0000 0000 0000 000000
2018-06-20 11:45:37,0.03,0.46,0.00,34.57,37.78,40.20,13.36,47.21,1014.65,1980.99,3131.99,2888.42,3310.14,599.74,572.38,11.23,0000 0000 0000 0000 000000
2018-06-20 11:50:39,0.02,0.46,0.00,34.53,37.78,40.22,13.35,47.23,1014.62,1980.98,3131.26,2888.02,3309.89,600.07,572.59,11.28,0000 0000 0000 0000 000000
2018-06-20 11:55:40,0.03,0.46,0.00,34.50,37.80,40.21,13.30,46.89,1014.48,1980.94,3130.51,2887.71,3309.14,600.09,572.62,11.33,0000 0000 0000 0000 000000
2018-06-20 12:00:41,0.02,0.47,0.00,34.46,37.80,40.22,13.38,47.20,1014.48,1980.91,3129.91,2887.08,3308.91,600.13,572.69,11.38,0000 0000 0000 0000 000000
2018-06-20 12:05:42,0.03,0.47,0.00,34.40,37.80,40.20,13.36,47.27,1014.63,1980.92,3129.22,2887.00,3308.49,600.32,573.06,11.43,0000 0000 0000 0000 000000
2018-06-20 12:10:43,0.01,0.47,0.00,34.34,37.80,40.19,13.40,47.31,1014.65,1980.86,3128.91,2886.88,3308.02,600.14,573.11,11.48,0000 0000 0000 0000 000000
2018-06-20 12:15:45,0.03,0.47,0.00,34.29,37.80,40.17,13.40,47.42,1014.66,1980.90,3128.15,2886.38,3307.99,600.04,573.02,11.53,0000 0000 0000 0000 000000
2018-06-20 12:20:46,0.02,0.47,0.00,34.24,37.78,40.18,13.35,47.24,1014.63,1980.89,3127.79,2886.01,3307.45,599.91,572.97,11.58,0000 0000 0000 0000 000000
2018-06-20 12:25:48,0.05,0.47,0.00,34.19,37.78,40.19,13.37,47.20,1014.58,1980.93,3126.75,2885.57,3306.85,600.06,573.19,11.63,0000 0000 0000 0000 000000
2018-06-20 12:30:49,0.03,0.48,0.00,34.15,37.78,40.19,13.42,47.44,1014.54,1980.94,3125.76,2885.00,3306.05,599.89,573.14,11.68,0000 0000 0000 0000 000000
2018-06-20 12:35:50,0.02,0.48,0.00,34.11,37.75,40.18,13.35,47.31,1014.37,1980.97,3125.03,2884.83,3305.92,599.69,572.96,11.73,0000 0000 0000 0000 000000
2018-06-20 12:40:52,0.04,0.48,0.00,34.07,37.75,40.18,13.37,47.13,1014.24,1980.99,3124.52,2884.24,3305.31,599.98,573.20,11.78,0000 0000 0000 0000 000000
2018-06-20 12:45:53,0.06,0.48,0.00,34.04,37.73,40.17,13.33,47.15,1014.20,1980.99,3123.09,2883.36,3304.26,599.95,573.13,11.83,0000 0000 0000 0000 000000
2018-06-20 12:50:54,0.02,0.48,0.00,34.01,37.71,40.17,13.30,47.27,1014.20,1980.99,3122.11,2882.92,3303.79,599.76,573.07,11.88,0000 0000 0000 0000 000000
2018-06-20 12:55:56,0.11,0.49,0.00,33.99,37.70,40.15,13.32,47.31,1014.21,1980.99,3120.44,2881.65,3302.38,599.76,573.17,11.93,0000 0000 0000 0000 000000
2018-06-20 13:00:57,0.03,0.49,0.00,33.96,37.68,40.13,13.44,47.52,1014.22,1980.99,3119.25,2881.01,3301.22,600.30,573.69,11.98,0000 0000 0000 0000 000000